Regional Weather Roundup
Issued by NWS Little Rock, AR

Home | Current Version | Previous Version | Graphics & Text | Print | Product List | Glossary On
Versions: 1 2 3 4 5 6 7 8 9 10 11 12 13 14 15 16 17 18 19 20 21 22 23 24 25 26 27 28 29 30 31 32
000
ASUS44 KLZK 270605
RWRLZK

WEATHER ROUNDUP FOR ARKANSAS
NATIONAL WEATHER SERVICE LITTLE ROCK AR
100 AM CDT TUE JUN 27 2017

NOTE: "FAIR" INDICATES FEW OR NO CLOUDS BELOW 12,000 FEET WITH NO
SIGNIFICANT WEATHER AND/OR OBSTRUCTIONS TO VISIBILITY.

ARZ001-003-010-029-270700-
NORTHWEST ARKANSAS

CITY           SKY/WX    TMP DP  RH WIND       PRES   REMARKS
FORT SMITH     CLEAR     70  60  70 CALM      30.07S
6HR MIN TEMP:  68; 6HR MAX TEMP:  86;

HARRISON       MOCLDY    62  59  90 SE3       30.14R
6HR MIN TEMP:  62; 6HR MAX TEMP:  77;

BENTONVILLE    MOCLDY    70  63  78 NE12      30.14R
6HR MIN TEMP:  68; 6HR MAX TEMP:  81;

ROGERS         CLOUDY    66  63  90 N13       30.15R
6HR MIN TEMP:  66; 6HR MAX TEMP:  82;

SILOAM SPGS    PTCLDY    66  57  72 S6        30.10S
HIGHFILL       PTCLDY    65  61  87 N8        30.12R
6HR MIN TEMP:  64; 6HR MAX TEMP:  82;

$$

ARZ004-005-016-270700-
NORTH CENTRAL ARKANSAS

CITY           SKY/WX    TMP DP  RH WIND       PRES   REMARKS
BATESVILLE     CLOUDY    64  63  94 CALM      30.10F
6HR MIN TEMP:  64; 6HR MAX TEMP:  82;

FLIPPIN        PTCLDY    63  55  77 CALM      30.10S
6HR MIN TEMP:  63; 6HR MAX TEMP:  77; 6HR PCP:  0.02;

MTN HOME       MOCLDY    63  59  87 CALM      30.12S
6HR MIN TEMP:  63; 6HR MAX TEMP:  75; 6HR PCP: TRACE;

$$

ARZ040-041-270700-
WEST CENTRAL ARKANSAS

CITY           SKY/WX    TMP DP  RH WIND       PRES   REMARKS
MENA           CLEAR     63  61  94 CALM      30.11S
MOUNT IDA      CLEAR     64  61  90 CALM      30.08R
6HR MIN TEMP:  64; 6HR MAX TEMP:  80;

$$

ARZ009-017-025-026-028-270700-
NORTHEAST ARKANSAS

CITY           SKY/WX    TMP DP  RH WIND       PRES   REMARKS
CORNING        CLOUDY    66  66 100 N12G18    30.12R
JONESBORO      CLOUDY    66  61  84 CALM      30.08F
6HR MIN TEMP:  66; 6HR MAX TEMP:  81;

WALNUT RIDGE   CLEAR     64  57  77 W3        30.09S
6HR MIN TEMP:  64; 6HR MAX TEMP:  77;

BLYTHEVILLE    CLOUDY    68  62  81 CALM      30.08F
6HR MIN TEMP:  68; 6HR MAX TEMP:  80; 6HR PCP: TRACE;

$$

ARZ022-023-033-042-044-270700-
CENTRAL ARKANSAS

CITY           SKY/WX    TMP DP  RH WIND       PRES   REMARKS
LITTLE ROCK    MOCLDY    70  66  87 CALM      30.09S
6HR MIN TEMP:  68; 6HR MAX TEMP:  80;

N LITTLE ROCK    N/A     69  63  81 S3        30.08S
6HR MIN TEMP:  69; 6HR MAX TEMP:  82;

CONWAY           N/A     68  64  88 CALM      30.07S
SEARCY         CLEAR     67  62  84 N5        30.11F
6HR MIN TEMP:  66; 6HR MAX TEMP:  84;

HOT SPRINGS    PTCLDY    70  64  81 E3        30.09S
6HR MIN TEMP:  69; 6HR MAX TEMP:  80;

RUSSELLVILLE   CLEAR     64  60  87 CALM      30.08S
6HR MIN TEMP:  63; 6HR MAX TEMP:  80;

CLINTON        FAIR      64  63  94 CALM      30.10F
$$

ARZ036-270700-
EAST ARKANSAS

CITY           SKY/WX    TMP DP  RH WIND       PRES   REMARKS
WEST MEMPHIS   PTCLDY    67  65  93 CALM      30.07F
6HR MIN TEMP:  67; 6HR MAX TEMP:  81;

$$

ARZ050-053-066-070-073-270700-
SOUTHWEST ARKANSAS

CITY           SKY/WX    TMP DP  RH WIND       PRES   REMARKS
ARKADELPHIA    FAIR      66  66 100 N3        30.08S
6HR MIN TEMP:  66; 6HR MAX TEMP:  77;

CAMDEN         PTCLDY    66  64  94 CALM      30.07F FOG
TEXARKANA      CLEAR     69  67  93 CALM      30.07S
6HR MIN TEMP:  67; 6HR MAX TEMP:  81;

EL DORADO      CLEAR     67  64  90 CALM      30.07F
6HR MIN TEMP:  66; 6HR MAX TEMP:  83;

DE QUEEN       CLOUDY    65  65 100 CALM      30.05S
6HR MIN TEMP:  65; 6HR MAX TEMP:  80;

$$

ARZ056-057-069-270700-
SOUTHEAST ARKANSAS

CITY           SKY/WX    TMP DP  RH WIND       PRES   REMARKS
PINE BLUFF     PTCLDY    67  65  93 CALM      30.08F
6HR MIN TEMP:  67; 6HR MAX TEMP:  77;

STUTTGART      CLEAR    N/A N/A N/A CALM      30.09S
MONTICELLO       N/A     67  65  93 CALM      30.08S
6HR MIN TEMP:  67; 6HR MAX TEMP:  80;


$$






USA.gov is the U.S. government's official web portal to all federal, state and local government web resources and services.